{"data":{"norad_id":57877,"intl_designator":"2023-144P","name":"STARLINK-30284","alt_names":[],"object_type":"PAYLOAD","status":"ACTIVE","operator":null,"country":"US","launch_date":"2023-09-16","launch_site_code":"AFETR","launch_vehicle":null,"mission":null,"orbit_class":"UNKNOWN","rcs_meters":null,"size_class":null,"mass_kg":null,"dimensions":null,"purposes":["comms"],"wikipedia_slug":null,"has_3d_model":false,"image_url":null,"decayed_at":null,"tle_current":{"epoch":"2026-05-25T02:14:35.420064Z","epoch_age_seconds":64282,"freshness":"FRESH","line1":"1 57877U 23144P   26145.09346551  .00003614  00000+0  14070-3 0  9997","line2":"2 57877  43.0001 177.0720 0001634 284.4562  75.6108 15.27600528149741","mean_motion":15.27600528,"eccentricity":0.0001634,"inclination_deg":43.0001,"raan_deg":177.072,"arg_perigee_deg":284.4562,"mean_anomaly_deg":75.6108,"bstar":0.0001407,"rev_number":14974,"period_min":94.265481950658,"perigee_km":481.86652074679,"apogee_km":484.10873627539,"semimajor_km":6861.1246285111,"source":"CELESTRAK","updated_at":"2026-05-25T13:38:18.449361Z"}}}